Location: Bonningues
(50.7927°N, 2.0150°E)
Time: 17:52:58
(UTC+00:00)

Cosmos 2369 - Pass Details

Date: 08 August 2020
Orbit: 838 x 857 km, 71.0° (Epoch: 24 September)

Event Time Altitude Azimuth Distance (km) Brightness Sun altitude
Rises 19:54:09 0° 331° (NNW) 3,440 8.1 -4.9°
Reaches altitude 10° 19:56:40 10° 335° (NNW) 2,501 7.2 -5.2°
Maximum altitude 20:02:21 60° 55° (NE) 983 4.0 -6.0°
Drops below altitude 10° 20:08:00 10° 135° (SE) 2,486 5.5 -6.7°
Enters shadow 20:08:34 - 137° (SE) 2,696 5.7 -6.8°
